Regional Weather Roundup
Issued by NWS Nashville, TN

Home | Current Version | Previous Version | Text Only | Print | Product List | Glossary On
Versions: 1 2 3 4 5 6 7 8 9 10 11 12 13 14 15 16 17 18 19 20 21 22 23 24 25 26 27
000
ASUS44 KOHX 251110
RWROHX
MIDDLE TENNESSEE HOURLY WEATHER ROUNDUP
NATIONAL WEATHER SERVICE NASHVILLE TN
600 AM CDT MON SEP 25 2017

NOTE: "FAIR" INDICATES FEW OR NO CLOUDS BELOW 12,000 FEET WITH
NO SIGNIFICANT WEATHER AND/OR OBSTRUCTIONS TO VISIBILITY.

* THESE REPORTS ARE NOT UNDER NWS QUALITY CONTROL AND MAY NOT
  REPORT WEATHER SUCH AS PRECIPITATION AND FOG.


TNZ005>011-023>034-057-059-062>066-078-080-251200
...NORTHERN MIDDLE TENNESSEE...

CITY           SKY/WX    TMP DP  RH WIND       PRES   REMARKS
CLARKSVILLE    FOG       65  64  97 CALM      30.02R VSB 1/4
CROSSVILLE     CLEAR     60  59  96 CALM      30.09R FOG
GALLATIN       CLEAR     64  64 100 CALM      30.05S
DICKSON        PTCLDY    66  64  93 CALM      30.03R
LEBANON        PTCLDY    63  62  96 CALM      30.02
NASHVILLE      PTCLDY    66  64  93 CALM      30.04R
PORTLAND       CLEAR     64  64 100 CALM      30.03R
SMYRNA           N/A    N/A N/A N/A MISG        N/A
SPARTA         CLEAR     59  59 100 CALM      30.05R FOG
SPRINGFIELD    FOG       66  66 100 CALM      30.02R VSB 1
WEST NASHVILLE FOG       66  66 100 CALM      30.01S VSB 1
$$
TNZ056-058-060-061-075>077-079-093>097-251200
...SOUTHERN MIDDLE TENNESSEE...

CITY           SKY/WX    TMP DP  RH WIND       PRES   REMARKS
COLUMBIA       CLEAR     64 N/A N/A CALM      30.01S HAZE
FAYETTEVILLE   MOCLDY    66  64  94 CALM      30.03S
MCMINNVILLE    CLOUDY    61  61 100 CALM      30.05R VSB 1/4
MURFREESBORO   CLEAR     65  63  93 CALM      30.03R
PULASKI        CLOUDY    63  63 100 CALM      30.03R FOG
SHELBYVILLE    CLEAR     64  63  94 E3        30.04R FOG
TULLAHOMA      CLEAR     61  59  94 CALM      30.06R
WINCHESTER     PTCLDY    61  61 100 CALM      30.05R
$$


...KEY TO REMARKS...
VSB - VISIBILITY IN MILES
WCI - WIND CHILL INDEX
HX  - HEAT INDEX





USA.gov is the U.S. government's official web portal to all federal, state and local government web resources and services.